Regional Weather Roundup
Issued by NWS

Home | Current Version | Previous Version | Graphics & Text | Print | Product List | Glossary On
Versions: 1 2 3 4 5 6 7 8 9 10 11 12 13 14 15 16 17 18 19 20 21 22 23 24 25 26 27
000
ASUS45 KTFX 231210
RWRMT
MONTANA REGIONAL WEATHER ROUNDUP
NATIONAL WEATHER SERVICE GREAT FALLS MT
500 AM MST MON JAN 23 2017

NOTE: "FAIR" INDICATES FEW OR NO CLOUDS BELOW 12000 FEET WITH NO
SIGNIFICANT WEATHER AND/OR OBSTRUCTIONS TO VISIBILITY.

MTZ001>007-043-231300-
WEST OF THE DIVIDE

CITY           SKY/WX    TMP DP  RH WIND       PRES   REMARKS
KALISPELL      LGT SNOW  30  23  75 N16       29.65R WCI  19
MISSOULA       FOG       25  23  92 CALM      29.66S VSB 1/2
BUTTE          CLOUDY     3   0  87 SE9       29.59F WCI -12
MULLAN PASS    FOG       23  21  92 SW7       29.55R VSB 3/4 WCI  15
ANACONDA         N/A     18  10  73 SW8       29.59F WCI   7
DEER LODGE       N/A     21  16  79 SE3       29.62S
EUREKA           N/A     21  19  93 CALM      29.69R
HAMILTON         N/A     19  18  93 CALM      29.63R VSB 1/2
PLAINS           N/A     25  21  84 CALM      29.71R
RONAN            N/A     25  23  91 CALM      29.72R
$$

MTZ008-052>055-231300-
SOUTHWEST MONTANA

CITY           SKY/WX    TMP DP  RH WIND       PRES   REMARKS
BOZEMAN        CLOUDY    12   9  87 S10       29.61F WCI  -1
DILLON         CLOUDY   N/A N/A N/A SW12      29.58R
W YELLOWSTONE  CLOUDY    19  19 100 CALM      29.59S
ENNIS          CLEAR     21  16  79 S12       29.61S WCI   9
TWIN BRIDGES     N/A     11   4  73 E3        29.64R
$$

MTZ009-010-012-014-046-048-049-054-231300-
EAST SLOPES AND CENTRAL MONTANA

CITY           SKY/WX    TMP DP  RH WIND       PRES   REMARKS
CUT BANK       LGT SNOW  20  18  92 N8        29.70S FOG     WCI  10
GREAT FALLS    LGT SNOW  22  20  92 NW5       29.69R FOG
MALMSTROM AFB  FLURRIES  23  23 100 NW6       29.71R WCI  16
HELENA         CLOUDY    24  20  84 NW5       29.65F
AUGUSTA        MOCLDY    20  20  99 N6        29.67S WCI  12
BOWMANS CRNR   FLURRIES  19  18  97 NW6       29.66R WCI  11
CHOTEAU          N/A     21  21 100 N6        29.71S WCI  14
CONRAD           N/A     22  22 100 NW3       29.75S
POWER          LGT SNOW  21  20  96 W7        29.69R WCI  12
RAYNESFORD     MOCLDY    22  22  97 NW5       29.67S
ULM            CLOUDY    23  22  98 MISG      29.70R
$$

MTZ011-013-016-021-045-047-050-051-231300-
NORTH CENTRAL MONTANA

CITY           SKY/WX    TMP DP  RH WIND       PRES   REMARKS
HAVRE          LGT SNOW  26  24  92 NE9       29.73S FOG     WCI  17
LEWISTOWN      SNOW      22  21  96 W3        29.65F VSB 1/2
CHINOOK          N/A     27  27 100 NE3       29.75R
DENTON         SNOWSHWR  24  23  97 NW9       29.65S FOG     WCI  14
FORT BENTON      N/A    N/A N/A N/A MISG      29.73R
GEYSER         LGT SNOW  22  21  95 W3        29.65S
GRASS RANGE    FOG       22  21  98 NE3       29.63R VSB 3/8
JUDITH GAP     LGT SNOW  20  18  93 N12       29.61F VSB 5/8 WCI   8
ROY            FOG       22  22  97 MISG      29.68R VSB 3/8
STANFORD       LGT SNOW  21  21  98 N7        29.64S VSB 3/4 WCI  13
WINIFRED       LGT SNOW  22  22  98 E7        29.67R FOG     WCI  14
$$

MTZ017>020-022>027-061-062-231300-
NORTHEAST MONTANA

CITY           SKY/WX    TMP DP  RH WIND       PRES   REMARKS
GLASGOW        CLOUDY    27  24  89 S7        29.74S WCI  19
JORDAN           N/A     24  21  88 E8        29.72F WCI  15
SIDNEY         CLOUDY    28  24  85 S3        29.77S
WOLF POINT     CLOUDY    28  24  85 N3        29.76F
PLENTYWOOD       N/A     21  19  93 NW13      29.75F WCI   9
POPLAR           N/A     28  25  86 NE6       29.77S WCI  22
$$

MTZ028>42-056>058-231300-
SOUTHCENTRAL AND SOUTHEAST MONTANA

CITY           SKY/WX    TMP DP  RH WIND       PRES   REMARKS
BAKER          FOG       20  17  88 SE13      29.72S VSB 1/2 WCI   7
BILLINGS       CLOUDY    18  16  92 N5        29.64R
LIVINGSTON     CLOUDY    18  14  84 CALM      29.59F
MILES CITY     CLOUDY    22  18  85 E6        29.69F FOG     WCI  14
BIG TIMBER     CLEAR     21  18  86 NE6       29.63S WCI  14
FORSYTH          N/A     19  19 100 E3        29.69S VSB 1/4
HARLOWTON      MOCLDY    19  18  94 N6        29.62S WCI  11
LAUREL           N/A     17  12  80 CALM      29.65S
$$

REGIONAL REPORTS...DAKOTAS

CITY           SKY/WX    TMP DP  RH WIND       PRES   REMARKS
WILLISTON      CLOUDY    27  24  89 NW3       29.77S
MINOT          CLOUDY    27  22  81 W5        29.75F
DICKINSON      CLOUDY    23  19  85 S3        29.74R
BEACH          CLOUDY    23  23 100 E6        29.78R WCI  16
CROSBY         CLOUDY    23  19  86 NW15      29.78S WCI  10
TIOGA          CLOUDY    25  25 100 NW9       29.76R WCI  15
WATFORD CITY   CLOUDY    28  25  86 W5        29.76S
BISMARCK       CLOUDY    30  23  75 NW3       29.79F
GRAND FORKS    CLOUDY    33  27  78 W7        29.77F WCI  27
FARGO          CLOUDY    35  28  75 W7        29.81S WCI  29
BUFFALO SD       N/A     19  13  77 CALM      29.65R
RAPID CITY     CLOUDY    21  19  92 SE9       29.68F WCI  11
$$

REGIONAL REPORTS...WYOMING/IDAHO/WASHINGTON

CITY           SKY/WX    TMP DP  RH WIND       PRES   REMARKS
GILLETTE       CLOUDY    31  26  82 W14       29.58F WCI  21
SHERIDAN       CLOUDY    19  16  88 CALM      29.61S
BUFFALO WY     CLOUDY    31  16  54 SW7       29.58F WCI  24
CODY           CLOUDY    16  11  80 CALM      29.58F
YELLOWSTONE LA   N/A     12  10  92 CALM      29.60S
IDAHO FALLS    CLOUDY    30  27  88 NE8       29.58F WCI  22
SALMON         CLOUDY     7   1  78 CALM      29.66S VSB 1/4
BOISE          CLOUDY    29  27  92 CALM      29.58F
SPOKANE        CLOUDY    31  30  96 S5        29.67R FOG
$$

REGIONAL REPORTS...ALBERTA

CITY           SKY/WX    TMP DP  RH WIND       PRES   REMARKS
EDMONTON       CLOUDY    14   7  73 E3        29.86S
LETHBRIDGE     FRZ RAIN  19 N/A N/A NE6       29.78S VSB 3/8 WCI  11
MEDICINE HAT   CLOUDY    19  18  93 N8        29.80S WCI   9
WATERTON GATE    N/A     19  18  93 N2          N/A
CARDSTON         N/A     19  19 100 NE1         N/A
MILK RIVER       N/A     19  18  93 N7          N/A  WCI  10
$$

REGIONAL REPORTS...SASKATCHEWAN

CITY           SKY/WX    TMP DP  RH WIND       PRES   REMARKS
SWIFT CURRENT  CLOUDY    16  14  93 NW8       29.73S WCI   5
REGINA         CLOUDY    18  14  86 W12       29.75S WCI   5
SASKATOON      FLURRIES  14  10  85 N9        29.81F WCI   2
CYPRESS HILLS    N/A     14  10  85 N1          N/A
VAL MARIE        N/A     21  19  93 N10         N/A  WCI  10
ROCKGLEN         N/A     18  18 100 N7          N/A  WCI   8
ASSINIBOIA       N/A     14  12  92 NE1         N/A
$$




USA.gov is the U.S. government's official web portal to all federal, state and local government web resources and services.